| time (UTC) | temp F | wind direction | speed MPH | gust MPH | rain 1hr in | rain 24hr in | rain mn in | humidity % | barometer mb |
| 20260901161030 | 82 | 220 | 3.0 | 9.0 | 0.00 | 0.00 | 0.00 | 88 | 1015.5 |
| 20260901160545 | 82 | 217 | 6.0 | 9.0 | 0.00 | 0.00 | 0.00 | 88 | 1015.5 |
| 20260901160048 | 82 | 245 | 3.0 | 7.0 | 0.00 | 0.00 | 0.00 | 89 | 1015.4 |
| 20260901155522 | 81 | 196 | 4.0 | 5.0 | 0.00 | 0.00 | 0.00 | 89 | 1015.5 |
| 20260901155034 | 80 | 199 | 3.0 | 8.0 | 0.00 | 0.00 | 0.00 | 90 | 1015.4 |
| 20260901154535 | 80 | 277 | 4.0 | 8.0 | 0.00 | 0.00 | 0.00 | 90 | 1015.5 |
| 20260901154024 | 80 | 165 | 5.0 | 9.0 | 0.00 | 0.00 | 0.00 | 91 | 1015.4 |
| 20260901153519 | 80 | 227 | 5.0 | 8.0 | 0.00 | 0.00 | 0.00 | 91 | 1015.5 |
| 20260901153024 | 80 | 222 | 5.0 | 8.0 | 0.00 | 0.00 | 0.00 | 91 | 1015.5 |
| 20260901152520 | 79 | 219 | 2.0 | 4.0 | 0.00 | 0.00 | 0.00 | 92 | 1015.4 |
| 20260901152031 | 79 | 219 | 0.0 | 5.0 | 0.00 | 0.00 | 0.00 | 92 | 1015.5 |
| 20260901151521 | 79 | 219 | 3.0 | 5.0 | 0.00 | 0.00 | 0.00 | 94 | 1015.6 |
| 20260901151038 | 78 | 219 | 4.0 | 6.0 | 0.00 | 0.00 | 0.00 | 94 | 1015.6 |
| 20260901150527 | 77 | 228 | 3.0 | 5.0 | 0.00 | 0.00 | 0.00 | 94 | 1015.5 |
| 20260901150029 | 77 | 203 | 3.0 | 5.0 | 0.00 | 0.00 | 0.00 | 94 | 1015.4 |
| 20260901145526 | 77 | 188 | 3.0 | 8.0 | 0.00 | 0.00 | 0.00 | 94 | 1015.3 |
| 20260901145043 | 77 | 222 | 5.0 | 8.0 | 0.00 | 0.00 | 0.00 | 94 | 1015.4 |
| 20260901144554 | 77 | 198 | 5.0 | 7.0 | 0.00 | 0.00 | 0.00 | 94 | 1015.4 |
| 20260901144028 | 77 | 199 | 4.0 | 5.0 | 0.00 | 0.00 | 0.00 | 95 | 1015.4 |
| 20260901143539 | 77 | 209 | 2.0 | 4.0 | 0.00 | 0.00 | 0.00 | 95 | 1015.3 |
| 20260901143025 | 77 | 209 | 2.0 | 4.0 | 0.00 | 0.00 | 0.00 | 95 | 1015.4 |
| 20260901142519 | 77 | 209 | 1.0 | 4.0 | 0.00 | 0.00 | 0.00 | 95 | 1015.6 |
| 20260901142017 | 76 | 286 | 1.0 | 4.0 | 0.00 | 0.00 | 0.00 | 95 | 1015.8 |
| 20260901141532 | 76 | 300 | 1.0 | 3.0 | 0.00 | 0.00 | 0.00 | 95 | 1015.9 |
| 20260901141037 | 76 | 300 | 2.0 | 6.0 | 0.00 | 0.00 | 0.00 | 95 | 1015.9 |
| 20260901140531 | 76 | 300 | 2.0 | 7.0 | 0.00 | 0.00 | 0.00 | 95 | 1015.9 |
| 20260901140021 | 76 | 286 | 2.0 | 7.0 | 0.00 | 0.00 | 0.00 | 95 | 1015.8 |
| 20260901135519 | 76 | 267 | 3.0 | 5.0 | 0.00 | 0.00 | 0.00 | 95 | 1015.9 |
| 20260901135016 | 75 | 292 | 3.0 | 8.0 | 0.00 | 0.00 | 0.00 | 95 | 1015.8 |
| 20260901134532 | 75 | 237 | 5.0 | 10.0 | 0.00 | 0.00 | 0.00 | 95 | 1015.8 |
| 20260901134018 | 75 | 238 | 7.0 | 11.0 | 0.00 | 0.00 | 0.00 | 95 | 1015.8 |
| 20260901133533 | 75 | 207 | 8.0 | 11.0 | 0.00 | 0.00 | 0.00 | 95 | 1015.8 |
| 20260901133030 | 75 | 217 | 9.0 | 10.0 | 0.00 | 0.00 | 0.00 | 95 | 1015.8 |
| 20260901132525 | 74 | 225 | 5.0 | 7.0 | 0.00 | 0.00 | 0.00 | 95 | 1015.8 |
| 20260901132055 | 74 | 218 | 5.0 | 7.0 | 0.00 | 0.00 | 0.00 | 95 | 1015.6 |
| 20260901131531 | 75 | 203 | 3.0 | 4.0 | 0.00 | 0.00 | 0.00 | 95 | 1015.6 |
| 20260901131028 | 74 | 244 | 2.0 | 4.0 | 0.00 | 0.00 | 0.00 | 95 | 1015.7 |
| 20260901130521 | 74 | 244 | 3.0 | 5.0 | 0.00 | 0.00 | 0.00 | 95 | 1015.6 |
| 20260901130034 | 74 | 244 | 3.0 | 5.0 | 0.00 | 0.00 | 0.00 | 95 | 1015.7 |
| 20260901125525 | 74 | 248 | 2.0 | 5.0 | 0.00 | 0.00 | 0.00 | 95 | 1015.6 |
| 20260901125019 | 74 | 227 | 2.0 | 5.0 | 0.00 | 0.00 | 0.00 | 95 | 1015.5 |
| 20260901124536 | 73 | 227 | 2.0 | 4.0 | 0.00 | 0.00 | 0.00 | 95 | 1015.4 |
| 20260901124031 | 73 | 227 | 2.0 | 4.0 | 0.00 | 0.00 | 0.00 | 95 | 1015.4 |
| 20260901123524 | 73 | 227 | 2.0 | 4.0 | 0.00 | 0.00 | 0.00 | 95 | 1015.3 |
| 20260901123051 | 73 | 227 | 2.0 | 3.0 | 0.00 | 0.00 | 0.00 | 95 | 1015.3 |
| 20260901122523 | 73 | 227 | 1.0 | 6.0 | 0.00 | 0.00 | 0.00 | 95 | 1015.2 |
| 20260901122018 | 73 | 227 | 1.0 | 6.0 | 0.00 | 0.00 | 0.00 | 95 | 1015.1 |
| 20260901121525 | 73 | 232 | 3.0 | 5.0 | 0.00 | 0.00 | 0.00 | 95 | 1015.2 |
| 20260901121019 | 73 | 232 | 2.0 | 5.0 | 0.00 | 0.00 | 0.00 | 95 | 1015.2 |
| 20260901120517 | 73 | 232 | 2.0 | 5.0 | 0.00 | 0.00 | 0.00 | 95 | 1015.1 |
| 20260901120033 | 73 | 232 | 2.0 | 4.0 | 0.00 | 0.00 | 0.00 | 95 | 1015.1 |
| 20260901115518 | 73 | 232 | 3.0 | 4.0 | 0.00 | 0.00 | 0.00 | 95 | 1015.1 |
| 20260901115034 | 72 | 232 | 1.0 | 3.0 | 0.00 | 0.00 | 0.00 | 95 | 1015.1 |
| 20260901114555 | 72 | 232 | 2.0 | 3.0 | 0.00 | 0.00 | 0.00 | 95 | 1015.0 |
| 20260901114028 | 72 | 232 | 0.0 | 3.0 | 0.00 | 0.00 | 0.00 | 95 | 1014.9 |
| 20260901113523 | 72 | 232 | 1.0 | 3.0 | 0.00 | 0.00 | 0.00 | 95 | 1015.0 |
| 20260901113047 | 73 | 232 | 0.0 | 4.0 | 0.00 | 0.00 | 0.00 | 95 | 1014.9 |
| 20260901112530 | 73 | 232 | 1.0 | 4.0 | 0.00 | 0.00 | 0.00 | 95 | 1014.9 |
| 20260901112018 | 73 | 232 | 2.0 | 4.0 | 0.00 | 0.00 | 0.00 | 95 | 1014.8 |
| 20260901111537 | 72 | 232 | 3.0 | 4.0 | 0.00 | 0.00 | 0.00 | 95 | 1014.7 |
| 20260901111027 | 73 | 232 | 2.0 | 4.0 | 0.00 | 0.00 | 0.00 | 95 | 1014.6 |
| 20260901110524 | 73 | 232 | 2.0 | 4.0 | 0.00 | 0.00 | 0.00 | 94 | 1014.6 |
| 20260901110018 | 73 | 232 | 1.0 | 3.0 | 0.00 | 0.00 | 0.00 | 94 | 1014.6 |
| 20260901105531 | 73 | 232 | 1.0 | 3.0 | 0.00 | 0.00 | 0.00 | 94 | 1014.6 |
| 20260901105017 | 73 | 232 | 1.0 | 3.0 | 0.00 | 0.00 | 0.00 | 94 | 1014.5 |
| 20260901104527 | 73 | 232 | 0.0 | 2.0 | 0.00 | 0.00 | 0.00 | 95 | 1014.6 |
| 20260901104019 | 73 | 232 | 1.0 | 4.0 | 0.00 | 0.00 | 0.00 | 95 | 1014.7 |
| 20260901103533 | 73 | 232 | 2.0 | 4.0 | 0.00 | 0.00 | 0.00 | 95 | 1014.7 |
| 20260901103030 | 73 | 232 | 2.0 | 6.0 | 0.00 | 0.00 | 0.00 | 95 | 1014.6 |
| 20260901102528 | 73 | 232 | 3.0 | 7.0 | 0.00 | 0.00 | 0.00 | 95 | 1014.5 |
| 20260901102042 | 73 | 228 | 5.0 | 7.0 | 0.00 | 0.00 | 0.00 | 94 | 1014.6 |
| 20260901101516 | 73 | 221 | 5.0 | 7.0 | 0.00 | 0.00 | 0.00 | 94 | 1014.6 |
| 20260901101032 | 73 | 230 | 5.0 | 6.0 | 0.00 | 0.00 | 0.00 | 94 | 1014.5 |
| 20260901100526 | 73 | 225 | 3.0 | 6.0 | 0.00 | 0.00 | 0.00 | 94 | 1014.5 |
| 20260901100027 | 73 | 225 | 3.0 | 5.0 | 0.00 | 0.00 | 0.00 | 94 | 1014.6 |
| 20260901095523 | 73 | 225 | 2.0 | 4.0 | 0.00 | 0.00 | 0.00 | 94 | 1014.5 |
| 20260901095021 | 73 | 225 | 2.0 | 4.0 | 0.00 | 0.00 | 0.00 | 94 | 1014.4 |
| 20260901094518 | 73 | 225 | 2.0 | 5.0 | 0.00 | 0.00 | 0.00 | 94 | 1014.5 |
| 20260901094034 | 73 | 225 | 3.0 | 5.0 | 0.00 | 0.00 | 0.00 | 94 | 1014.5 |
| 20260901093518 | 73 | 225 | 4.0 | 5.0 | 0.00 | 0.00 | 0.00 | 94 | 1014.6 |
| 20260901093027 | 73 | 225 | 2.0 | 4.0 | 0.00 | 0.00 | 0.00 | 94 | 1014.5 |
| 20260901092521 | 73 | 225 | 0.0 | 2.0 | 0.00 | 0.00 | 0.00 | 94 | 1014.6 |
| 20260901092054 | 73 | 225 | 1.0 | 3.0 | 0.00 | 0.00 | 0.00 | 94 | 1014.5 |
| 20260901091533 | 73 | 225 | 1.0 | 3.0 | 0.00 | 0.00 | 0.00 | 94 | 1014.6 |
| 20260901091028 | 73 | 225 | 0.0 | 2.0 | 0.00 | 0.00 | 0.00 | 94 | 1014.5 |
| 20260901090523 | 73 | 225 | 0.0 | 3.0 | 0.00 | 0.00 | 0.00 | 94 | 1014.4 |
| 20260901090035 | 73 | 225 | 1.0 | 3.0 | 0.00 | 0.00 | 0.00 | 94 | 1014.4 |
| 20260901085528 | 74 | 225 | 1.0 | 4.0 | 0.00 | 0.00 | 0.00 | 94 | 1014.6 |
| 20260901085019 | 74 | 225 | 3.0 | 5.0 | 0.00 | 0.00 | 0.00 | 94 | 1014.5 |
| 20260901084528 | 74 | 225 | 3.0 | 5.0 | 0.00 | 0.00 | 0.00 | 94 | 1014.5 |
| 20260901084025 | 74 | 225 | 3.0 | 5.0 | 0.00 | 0.00 | 0.00 | 94 | 1014.5 |
| 20260901083520 | 74 | 225 | 4.0 | 6.0 | 0.00 | 0.00 | 0.00 | 94 | 1014.5 |
| 20260901083021 | 74 | 225 | 4.0 | 6.0 | 0.00 | 0.00 | 0.00 | 94 | 1014.6 |
| 20260901082531 | 74 | 225 | 3.0 | 5.0 | 0.00 | 0.00 | 0.00 | 94 | 1014.6 |
| 20260901082038 | 74 | 225 | 3.0 | 5.0 | 0.00 | 0.00 | 0.00 | 94 | 1014.6 |
| 20260901081517 | 74 | 225 | 3.0 | 5.0 | 0.00 | 0.00 | 0.00 | 94 | 1014.5 |
| 20260901081032 | 74 | 225 | 3.0 | 4.0 | 0.00 | 0.00 | 0.00 | 94 | 1014.6 |
| 20260901080556 | 74 | 221 | 2.0 | 6.0 | 0.00 | 0.00 | 0.00 | 94 | 1014.6 |
| 20260901080023 | 74 | 221 | 3.0 | 6.0 | 0.00 | 0.00 | 0.00 | 93 | 1014.7 |
| 20260901075534 | 74 | 224 | 5.0 | 7.0 | 0.00 | 0.00 | 0.00 | 93 | 1014.5 |
| 20260901075019 | 74 | 213 | 5.0 | 7.0 | 0.00 | 0.00 | 0.00 | 93 | 1014.5 |
| 20260901074528 | 74 | 219 | 5.0 | 7.0 | 0.00 | 0.00 | 0.00 | 93 | 1014.4 |
| 20260901074041 | 74 | 216 | 5.0 | 7.0 | 0.00 | 0.00 | 0.00 | 93 | 1014.3 |
| 20260901073516 | 74 | 232 | 5.0 | 7.0 | 0.00 | 0.00 | 0.00 | 93 | 1014.2 |
| 20260901073031 | 74 | 212 | 5.0 | 7.0 | 0.00 | 0.00 | 0.00 | 93 | 1014.2 |
| 20260901072527 | 74 | 213 | 5.0 | 7.0 | 0.00 | 0.00 | 0.00 | 93 | 1014.1 |
| 20260901072044 | 74 | 220 | 5.0 | 6.0 | 0.00 | 0.00 | 0.00 | 93 | 1014.2 |
| 20260901071543 | 74 | 217 | 4.0 | 5.0 | 0.00 | 0.00 | 0.00 | 93 | 1014.1 |
| 20260901071027 | 74 | 234 | 3.0 | 5.0 | 0.00 | 0.00 | 0.00 | 93 | 1014.1 |
| 20260901070525 | 74 | 234 | 4.0 | 5.0 | 0.00 | 0.00 | 0.00 | 93 | 1014.2 |
| 20260901070034 | 74 | 234 | 4.0 | 5.0 | 0.00 | 0.00 | 0.00 | 93 | 1014.3 |
| 20260901065548 | 74 | 234 | 4.0 | 5.0 | 0.00 | 0.00 | 0.00 | 93 | 1014.3 |
| 20260901065021 | 74 | 234 | 4.0 | 5.0 | 0.00 | 0.00 | 0.00 | 93 | 1014.4 |
| 20260901064526 | 75 | 234 | 3.0 | 5.0 | 0.00 | 0.00 | 0.00 | 93 | 1014.3 |
| 20260901064021 | 75 | 234 | 3.0 | 5.0 | 0.00 | 0.00 | 0.00 | 92 | 1014.3 |
| 20260901063537 | 75 | 234 | 4.0 | 5.0 | 0.00 | 0.00 | 0.00 | 92 | 1014.2 |
| 20260901063017 | 75 | 234 | 2.0 | 5.0 | 0.00 | 0.00 | 0.00 | 92 | 1014.4 |
| 20260901062532 | 75 | 234 | 3.0 | 5.0 | 0.00 | 0.00 | 0.00 | 92 | 1014.3 |
| 20260901062020 | 75 | 234 | 4.0 | 5.0 | 0.00 | 0.00 | 0.00 | 92 | 1014.2 |
| 20260901061538 | 75 | 234 | 3.0 | 7.0 | 0.00 | 0.00 | 0.00 | 92 | 1014.1 |
| 20260901061032 | 75 | 234 | 4.0 | 7.0 | 0.00 | 0.00 | 0.00 | 92 | 1014.1 |
| 20260901060539 | 75 | 213 | 4.0 | 7.0 | 0.00 | 0.00 | 0.00 | 92 | 1014.0 |
| 20260901060024 | 75 | 228 | 4.0 | 6.0 | 0.00 | 0.00 | 0.00 | 92 | 1014.1 |
| 20260901055520 | 75 | 215 | 4.0 | 7.0 | 0.00 | 0.00 | 0.00 | 92 | 1014.1 |
| 20260901055029 | 75 | 219 | 5.0 | 7.0 | 0.00 | 0.00 | 0.00 | 92 | 1014.1 |
| 20260901054538 | 75 | 222 | 4.0 | 5.0 | 0.00 | 0.00 | 0.00 | 92 | 1014.2 |
| 20260901054040 | 75 | 213 | 4.0 | 5.0 | 0.00 | 0.00 | 0.00 | 92 | 1014.2 |
| 20260901053527 | 75 | 228 | 4.0 | 5.0 | 0.00 | 0.00 | 0.00 | 92 | 1014.2 |
| 20260901053033 | 75 | 218 | 4.0 | 5.0 | 0.00 | 0.00 | 0.00 | 92 | 1014.2 |
| 20260901052527 | 76 | 210 | 4.0 | 6.0 | 0.00 | 0.00 | 0.00 | 92 | 1014.2 |
| 20260901052043 | 76 | 215 | 5.0 | 6.0 | 0.00 | 0.00 | 0.00 | 92 | 1014.1 |
| 20260901051522 | 76 | 228 | 3.0 | 5.0 | 0.00 | 0.00 | 0.00 | 92 | 1014.2 |
| 20260901051033 | 75 | 203 | 4.0 | 5.0 | 0.00 | 0.00 | 0.00 | 92 | 1014.2 |
| 20260901050522 | 75 | 203 | 3.0 | 6.0 | 0.00 | 0.00 | 0.00 | 92 | 1014.2 |
| 20260901050033 | 75 | 203 | 4.0 | 6.0 | 0.00 | 0.00 | 0.00 | 92 | 1014.1 |
| 20260901045529 | 75 | 209 | 4.0 | 7.0 | 0.00 | 0.00 | 0.00 | 92 | 1014.2 |
| 20260901045035 | 75 | 239 | 4.0 | 5.0 | 0.00 | 0.00 | 0.00 | 92 | 1014.2 |
| 20260901044554 | 75 | 239 | 4.0 | 5.0 | 0.00 | 0.00 | 0.00 | 92 | 1014.4 |
| 20260901044026 | 75 | 239 | 4.0 | 4.0 | 0.00 | 0.00 | 0.00 | 91 | 1014.4 |
| 20260901043520 | 75 | 239 | 3.0 | 4.0 | 0.00 | 0.00 | 0.00 | 91 | 1014.3 |
| 20260901043046 | 75 | 239 | 2.0 | 3.0 | 0.00 | 0.00 | 0.00 | 91 | 1014.3 |
| 20260901042521 | 75 | 239 | 2.0 | 3.0 | 0.00 | 0.00 | 0.00 | 91 | 1014.3 |
| 20260901042032 | 75 | 239 | 1.0 | 2.0 | 0.00 | 0.00 | 0.00 | 90 | 1014.2 |
| 20260901041529 | 76 | 239 | 0.0 | 3.0 | 0.00 | 0.00 | 0.00 | 90 | 1014.2 |
| 20260901041021 | 76 | 239 | 1.0 | 3.0 | 0.00 | 0.00 | 0.00 | 90 | 1014.3 |
| 20260901040534 | 76 | 239 | 2.0 | 3.0 | 0.00 | 0.00 | 0.00 | 90 | 1014.1 |
| 20260901040031 | 76 | 239 | 2.0 | 3.0 | 0.00 | 0.00 | 0.00 | 90 | 1014.1 |
| 20260901035546 | 76 | 239 | 1.0 | 2.0 | 0.00 | 0.00 | 0.00 | 90 | 1014.2 |
| 20260901035019 | 77 | 239 | 0.0 | 3.0 | 0.00 | 0.00 | 0.00 | 89 | 1014.3 |
| 20260901034538 | 77 | 239 | 1.0 | 3.0 | 0.00 | 0.00 | 0.00 | 89 | 1014.2 |
| 20260901034022 | 77 | 239 | 2.0 | 4.0 | 0.00 | 0.00 | 0.00 | 89 | 1014.1 |
| 20260901033534 | 77 | 239 | 2.0 | 4.0 | 0.00 | 0.00 | 0.00 | 89 | 1014.2 |
| 20260901033033 | 77 | 239 | 3.0 | 4.0 | 0.00 | 0.00 | 0.00 | 89 | 1014.2 |
| 20260901032519 | 77 | 239 | 2.0 | 5.0 | 0.00 | 0.00 | 0.00 | 89 | 1014.3 |
| 20260901032034 | 77 | 239 | 3.0 | 5.0 | 0.00 | 0.00 | 0.00 | 88 | 1014.3 |
| 20260901031543 | 77 | 239 | 3.0 | 5.0 | 0.00 | 0.00 | 0.00 | 88 | 1014.4 |
| 20260901030527 | 77 | 239 | 2.0 | 4.0 | 0.00 | 0.00 | 0.00 | 89 | 1014.3 |
| 20260901030030 | 77 | 239 | 3.0 | 4.0 | 0.00 | 0.02 | 0.00 | 88 | 1014.4 |
| 20260901025525 | 77 | 239 | 1.0 | 2.0 | 0.00 | 0.02 | 0.00 | 88 | 1014.3 |
| 20260901025021 | 77 | 239 | 1.0 | 4.0 | 0.00 | 0.02 | 0.00 | 88 | 1014.3 |
| 20260901024521 | 77 | 239 | 2.0 | 4.0 | 0.00 | 0.02 | 0.00 | 89 | 1014.3 |
| 20260901024033 | 77 | 239 | 3.0 | 4.0 | 0.00 | 0.02 | 0.00 | 89 | 1014.3 |
| 20260901023538 | 77 | 239 | 2.0 | 4.0 | 0.00 | 0.02 | 0.00 | 89 | 1014.2 |
| 20260901023032 | 77 | 239 | 1.0 | 3.0 | 0.00 | 0.02 | 0.00 | 89 | 1014.2 |
| 20260901022530 | 77 | 239 | 1.0 | 2.0 | 0.00 | 0.02 | 0.00 | 89 | 1014.2 |
| 20260901022024 | 77 | 239 | 0.0 | 1.0 | 0.00 | 0.02 | 0.00 | 89 | 1014.3 |
| 20260901021521 | 77 | 239 | 0.0 | 2.0 | 0.00 | 0.02 | 0.00 | 89 | 1014.4 |
| 20260901021053 | 77 | 239 | 0.0 | 1.0 | 0.00 | 0.02 | 0.00 | 89 | 1014.4 |
| 20260901020536 | 77 | 239 | 0.0 | 2.0 | 0.00 | 0.02 | 0.00 | 88 | 1014.3 |
| 20260901020034 | 77 | 239 | 1.0 | 3.0 | 0.00 | 0.10 | 0.00 | 88 | 1014.2 |
| 20260901015523 | 77 | 239 | 1.0 | 3.0 | 0.00 | 0.10 | 0.00 | 88 | 1014.4 |
| 20260901015039 | 78 | 239 | 0.0 | 4.0 | 0.00 | 0.10 | 0.00 | 87 | 1014.2 |
| 20260901014525 | 78 | 239 | 2.0 | 4.0 | 0.00 | 0.10 | 0.00 | 87 | 1014.1 |
| 20260901014020 | 78 | 239 | 3.0 | 5.0 | 0.00 | 0.10 | 0.00 | 87 | 1014.2 |
| 20260901013535 | 78 | 239 | 3.0 | 5.0 | 0.00 | 0.10 | 0.00 | 86 | 1014.2 |
| 20260901013022 | 79 | 239 | 4.0 | 5.0 | 0.00 | 0.10 | 0.00 | 86 | 1014.2 |
| 20260901012535 | 79 | 239 | 3.0 | 5.0 | 0.00 | 0.10 | 0.00 | 86 | 1014.0 |
| 20260901012023 | 79 | 216 | 3.0 | 7.0 | 0.00 | 0.10 | 0.00 | 86 | 1013.9 |
| 20260901011536 | 79 | 205 | 3.0 | 7.0 | 0.00 | 0.10 | 0.00 | 86 | 1013.9 |
| 20260901011028 | 79 | 202 | 4.0 | 8.0 | 0.00 | 0.10 | 0.00 | 85 | 1013.8 |
| 20260901010520 | 79 | 215 | 4.0 | 8.0 | 0.00 | 0.10 | 0.00 | 85 | 1013.6 |
| 20260901010029 | 79 | 209 | 5.0 | 8.0 | 0.00 | 0.11 | 0.00 | 85 | 1013.6 |
| 20260901005522 | 80 | 203 | 5.0 | 8.0 | 0.00 | 0.11 | 0.00 | 84 | 1013.5 |
| 20260901005035 | 80 | 217 | 6.0 | 10.0 | 0.00 | 0.11 | 0.00 | 84 | 1013.5 |
| 20260901004534 | 80 | 221 | 6.0 | 8.0 | 0.00 | 0.11 | 0.00 | 84 | 1013.7 |
| 20260901004026 | 80 | 214 | 6.0 | 8.0 | 0.00 | 0.11 | 0.00 | 83 | 1013.6 |
| 20260901003523 | 80 | 219 | 5.0 | 7.0 | 0.00 | 0.11 | 0.00 | 83 | 1013.5 |
| 20260901003022 | 81 | 210 | 5.0 | 7.0 | 0.00 | 0.11 | 0.00 | 82 | 1013.4 |
| 20260901002534 | 81 | 213 | 4.0 | 6.0 | 0.00 | 0.11 | 0.00 | 81 | 1013.4 |
| 20260901002030 | 81 | 214 | 3.0 | 7.0 | 0.00 | 0.11 | 0.00 | 80 | 1013.3 |
| 20260901001531 | 82 | 213 | 5.0 | 7.0 | 0.00 | 0.11 | 0.00 | 80 | 1013.3 |
| 20260901000600 | 82 | 209 | 4.0 | 8.0 | 0.00 | 0.11 | 0.00 | 79 | 1013.3 |
| 20260901000033 | 82 | 183 | 3.0 | 8.0 | 0.00 | 0.11 | 0.00 | 79 | 1013.2 |
| 20260831235526 | 83 | 219 | 4.0 | 8.0 | 0.00 | 0.11 | 0.00 | 79 | 1013.3 |
| 20260831235021 | 83 | 191 | 3.0 | 7.0 | 0.00 | 0.11 | 0.00 | 79 | 1013.1 |
| 20260831234532 | 83 | 215 | 5.0 | 8.0 | 0.00 | 0.11 | 0.00 | 79 | 1013.2 |
| 20260831234019 | 83 | 221 | 6.0 | 8.0 | 0.00 | 0.11 | 0.00 | 79 | 1013.3 |
| 20260831233535 | 82 | 233 | 4.0 | 8.0 | 0.00 | 0.11 | 0.00 | 79 | 1013.2 |
| 20260831233032 | 82 | 222 | 4.0 | 7.0 | 0.00 | 0.11 | 0.00 | 79 | 1013.3 |
| 20260831232530 | 82 | 210 | 5.0 | 7.0 | 0.00 | 0.11 | 0.00 | 79 | 1013.2 |
| 20260831232022 | 82 | 224 | 5.0 | 8.0 | 0.00 | 0.11 | 0.00 | 79 | 1013.1 |
| 20260831231520 | 82 | 203 | 4.0 | 8.0 | 0.00 | 0.11 | 0.00 | 78 | 1013.1 |
| 20260831231030 | 83 | 218 | 5.0 | 9.0 | 0.00 | 0.11 | 0.00 | 78 | 1013.1 |
| 20260831230526 | 83 | 200 | 5.0 | 9.0 | 0.00 | 0.11 | 0.00 | 78 | 1013.0 |
| 20260831230026 | 83 | 221 | 4.0 | 10.0 | 0.00 | 0.11 | 0.00 | 77 | 1013.0 |
| 20260831225542 | 83 | 213 | 5.0 | 10.0 | 0.00 | 0.11 | 0.00 | 77 | 1013.0 |
| 20260831225032 | 83 | 221 | 6.0 | 10.0 | 0.00 | 0.11 | 0.00 | 77 | 1013.0 |
| 20260831224532 | 83 | 184 | 7.0 | 10.0 | 0.00 | 0.11 | 0.00 | 76 | 1013.0 |
| 20260831224017 | 84 | 209 | 8.0 | 10.0 | 0.00 | 0.11 | 0.00 | 76 | 1013.1 |
| 20260831223534 | 84 | 215 | 5.0 | 10.0 | 0.00 | 0.11 | 0.00 | 76 | 1013.0 |
| 20260831223022 | 84 | 216 | 7.0 | 10.0 | 0.00 | 0.11 | 0.00 | 75 | 1013.0 |
| 20260831222535 | 84 | 238 | 6.0 | 14.0 | 0.00 | 0.11 | 0.00 | 74 | 1012.9 |
| 20260831222055 | 84 | 215 | 9.0 | 14.0 | 0.00 | 0.11 | 0.00 | 73 | 1012.9 |
| 20260831221521 | 84 | 223 | 8.0 | 12.0 | 0.00 | 0.11 | 0.00 | 73 | 1012.8 |
| 20260831221025 | 85 | 198 | 7.0 | 12.0 | 0.00 | 0.11 | 0.00 | 73 | 1012.8 |
| 20260831220541 | 85 | 186 | 7.0 | 11.0 | 0.00 | 0.11 | 0.00 | 73 | 1012.9 |
| 20260831220026 | 86 | 214 | 8.0 | 11.0 | 0.00 | 0.11 | 0.00 | 72 | 1012.8 |
| 20260831215541 | 85 | 200 | 6.0 | 13.0 | 0.00 | 0.11 | 0.00 | 73 | 1012.8 |
| 20260831215035 | 86 | 199 | 10.0 | 14.0 | 0.00 | 0.11 | 0.00 | 71 | 1012.9 |
| 20260831214533 | 86 | 232 | 8.0 | 14.0 | 0.00 | 0.11 | 0.00 | 71 | 1013.0 |
| 20260831214022 | 85 | 234 | 9.0 | 13.0 | 0.00 | 0.11 | 0.00 | 72 | 1012.9 |
| 20260831213522 | 85 | 224 | 7.0 | 10.0 | 0.00 | 0.11 | 0.00 | 72 | 1013.0 |
| 20260831213024 | 85 | 212 | 6.0 | 11.0 | 0.00 | 0.11 | 0.00 | 72 | 1012.9 |
| 20260831212521 | 85 | 231 | 7.0 | 12.0 | 0.00 | 0.11 | 0.00 | 70 | 1012.7 |
| 20260831212057 | 86 | 269 | 9.0 | 16.0 | 0.00 | 0.11 | 0.00 | 69 | 1012.8 |
| 20260831211536 | 87 | 217 | 11.0 | 16.0 | 0.00 | 0.11 | 0.00 | 67 | 1012.7 |
| 20260831211020 | 87 | 226 | 9.0 | 14.0 | 0.00 | 0.11 | 0.00 | 69 | 1012.9 |
| 20260831210550 | 87 | 199 | 8.0 | 11.0 | 0.00 | 0.11 | 0.00 | 69 | 1012.9 |
| 20260831210038 | 86 | 230 | 6.0 | 12.0 | 0.00 | 0.12 | 0.00 | 70 | 1012.9 |
| 20260831205527 | 86 | 217 | 9.0 | 14.0 | 0.00 | 0.12 | 0.00 | 69 | 1012.9 |
| 20260831205021 | 86 | 235 | 7.0 | 12.0 | 0.00 | 0.12 | 0.00 | 69 | 1012.9 |
| 20260831204524 | 86 | 213 | 9.0 | 13.0 | 0.00 | 0.12 | 0.00 | 69 | 1013.0 |
| 20260831204019 | 85 | 222 | 10.0 | 12.0 | 0.00 | 0.12 | 0.00 | 70 | 1013.1 |
| 20260831203534 | 84 | 219 | 8.0 | 13.0 | 0.00 | 0.12 | 0.00 | 73 | 1013.2 |
| 20260831203043 | 85 | 213 | 7.0 | 13.0 | 0.00 | 0.12 | 0.00 | 71 | 1013.3 |
| 20260831202536 | 85 | 225 | 7.0 | 10.0 | 0.00 | 0.12 | 0.00 | 73 | 1013.3 |
| 20260831202021 | 84 | 221 | 7.0 | 12.0 | 0.00 | 0.12 | 0.00 | 72 | 1013.3 |
| 20260831201557 | 84 | 227 | 9.0 | 11.0 | 0.00 | 0.12 | 0.00 | 71 | 1013.3 |
| 20260831201032 | 84 | 248 | 7.0 | 13.0 | 0.00 | 0.12 | 0.00 | 73 | 1013.3 |
| 20260831200517 | 84 | 236 | 6.0 | 10.0 | 0.00 | 0.12 | 0.00 | 73 | 1013.2 |
| 20260831200024 | 84 | 231 | 7.0 | 10.0 | 0.00 | 0.16 | 0.00 | 71 | 1013.1 |
| 20260831195519 | 84 | 248 | 6.0 | 12.0 | 0.00 | 0.16 | 0.00 | 72 | 1013.1 |
| 20260831195032 | 84 | 232 | 6.0 | 15.0 | 0.00 | 0.16 | 0.00 | 71 | 1013.0 |
| 20260831194531 | 85 | 246 | 10.0 | 15.0 | 0.00 | 0.16 | 0.00 | 70 | 1013.0 |
| 20260831194036 | 86 | 200 | 10.0 | 14.0 | 0.00 | 0.16 | 0.00 | 70 | 1013.1 |
| 20260831193530 | 86 | 232 | 7.0 | 16.0 | 0.00 | 0.16 | 0.00 | 72 | 1013.2 |
| 20260831193021 | 85 | 190 | 9.0 | 16.0 | 0.00 | 0.16 | 0.00 | 71 | 1013.1 |
| 20260831192535 | 85 | 235 | 8.0 | 15.0 | 0.00 | 0.16 | 0.00 | 72 | 1013.3 |
| 20260831192037 | 84 | 218 | 9.0 | 15.0 | 0.00 | 0.16 | 0.00 | 73 | 1013.2 |
| 20260831191534 | 84 | 205 | 9.0 | 11.0 | 0.00 | 0.16 | 0.00 | 73 | 1013.0 |
| 20260831191030 | 84 | 221 | 6.0 | 11.0 | 0.00 | 0.16 | 0.00 | 73 | 1013.0 |
| 20260831190523 | 84 | 227 | 8.0 | 11.0 | 0.00 | 0.16 | 0.00 | 72 | 1012.9 |
| 20260831190036 | 84 | 221 | 6.0 | 10.0 | 0.00 | 0.24 | 0.00 | 72 | 1012.9 |
| 20260831185523 | 84 | 217 | 6.0 | 10.0 | 0.00 | 0.24 | 0.00 | 72 | 1012.8 |
| 20260831185034 | 84 | 221 | 5.0 | 8.0 | 0.00 | 0.24 | 0.00 | 72 | 1012.5 |
| 20260831184520 | 84 | 225 | 3.0 | 10.0 | 0.00 | 0.24 | 0.00 | 72 | 1012.5 |
| 20260831184034 | 84 | 242 | 7.0 | 12.0 | 0.00 | 0.24 | 0.00 | 71 | 1012.7 |
| 20260831183530 | 84 | 212 | 8.0 | 12.0 | 0.00 | 0.24 | 0.00 | 70 | 1012.9 |
| 20260831183030 | 84 | 215 | 6.0 | 10.0 | 0.00 | 0.24 | 0.00 | 71 | 1013.0 |
| 20260831182541 | 84 | 224 | 7.0 | 12.0 | 0.00 | 0.24 | 0.00 | 69 | 1013.0 |
| 20260831182035 | 84 | 250 | 7.0 | 12.0 | 0.00 | 0.24 | 0.00 | 69 | 1013.1 |
| 20260831181536 | 85 | 225 | 5.0 | 10.0 | 0.00 | 0.24 | 0.00 | 70 | 1013.1 |
| 20260831181031 | 85 | 241 | 6.0 | 12.0 | 0.00 | 0.24 | 0.00 | 70 | 1013.3 |
| 20260831180536 | 85 | 219 | 9.0 | 12.0 | 0.00 | 0.24 | 0.00 | 69 | 1013.4 |
| 20260831180022 | 85 | 219 | 9.0 | 14.0 | 0.00 | 0.24 | 0.00 | 67 | 1013.3 |
| 20260831175534 | 86 | 246 | 8.0 | 14.0 | 0.00 | 0.24 | 0.00 | 66 | 1013.3 |
| 20260831175036 | 86 | 230 | 10.0 | 15.0 | 0.00 | 0.24 | 0.00 | 67 | 1013.3 |
| 20260831174524 | 86 | 232 | 10.0 | 15.0 | 0.00 | 0.24 | 0.00 | 67 | 1013.3 |
| 20260831174020 | 86 | 223 | 10.0 | 20.0 | 0.00 | 0.24 | 0.00 | 66 | 1013.3 |
| 20260831173535 | 86 | 201 | 11.0 | 20.0 | 0.00 | 0.24 | 0.00 | 66 | 1013.4 |
| 20260831173037 | 85 | 246 | 13.0 | 20.0 | 0.00 | 0.24 | 0.00 | 67 | 1013.3 |
| 20260831172536 | 86 | 196 | 8.0 | 17.0 | 0.00 | 0.24 | 0.00 | 67 | 1013.4 |
| 20260831172031 | 85 | 240 | 11.0 | 19.0 | 0.00 | 0.24 | 0.00 | 68 | 1013.5 |
| 20260831171543 | 85 | 232 | 7.0 | 16.0 | 0.00 | 0.24 | 0.00 | 68 | 1013.5 |
| 20260831171036 | 85 | 238 | 9.0 | 16.0 | 0.00 | 0.24 | 0.00 | 67 | 1013.4 |
| 20260831170528 | 85 | 241 | 8.0 | 16.0 | 0.00 | 0.24 | 0.00 | 69 | 1013.4 |
| 20260831170029 | 84 | 240 | 11.0 | 16.0 | 0.00 | 0.24 | 0.00 | 69 | 1013.3 |
| 20260831165526 | 84 | 196 | 11.0 | 14.0 | 0.00 | 0.24 | 0.00 | 68 | 1013.3 |
| 20260831165042 | 84 | 209 | 10.0 | 16.0 | 0.00 | 0.24 | 0.00 | 68 | 1013.4 |
| 20260831164520 | 84 | 209 | 9.0 | 16.0 | 0.00 | 0.24 | 0.00 | 69 | 1013.4 |
| 20260831164033 | 84 | 228 | 11.0 | 15.0 | 0.00 | 0.24 | 0.00 | 69 | 1013.5 |
| 20260831163531 | 83 | 252 | 9.0 | 16.0 | 0.00 | 0.24 | 0.00 | 69 | 1013.7 |
| 20260831163030 | 84 | 213 | 10.0 | 15.0 | 0.00 | 0.24 | 0.00 | 70 | 1013.5 |
| 20260831162525 | 83 | 219 | 10.0 | 15.0 | 0.00 | 0.24 | 0.00 | 70 | 1013.7 |
| 20260831162019 | 84 | 224 | 8.0 | 16.0 | 0.00 | 0.24 | 0.00 | 68 | 1013.5 |